Date String (YYYY-MM-DD hh:mm:ss) UTC,Instrument flags,Ambient pressure (hPa),Sample flow (lpm),Bypass flow (lpm),Sample temperature (°C),Ambient temperature (°C),ASC tube jacket temperature (°C),LED temperature (°C),Box temperature (°C),Sample RH (%),Span deviation,Mass concentration (μg/m³),Mass concentration (μg/m³),Mass concentration (μg/m³)
DateTimeUTC,F1_M11,P_M11,Q1_M11,Q2_M11,T1_M11,T2_M11,T3_M11,T4_M11,T5_M11,U1_M11,ZSPAN_M11,X0_M11,X2_M11,X1_M11
2022-05-13 15:00:00,,0826.7,5.00,0.00,27.4,26.2,00.0,36.3,29.1,07.8,0000.0,0007.57,0003.15,0002.03
2022-05-13 15:01:00,,0826.7,4.99,0.00,27.4,26.2,00.0,36.3,29.1,07.9,0000.0,0007.77,0003.13,0002.02
2022-05-13 15:02:00,,0826.7,5.00,0.00,27.4,26.2,00.0,36.3,29.1,07.6,0000.0,0007.70,0003.08,0001.98
2022-05-13 15:03:00,,0826.7,5.01,0.00,27.4,26.3,00.0,36.3,29.1,07.6,0000.0,0007.65,0003.04,0001.98
2022-05-13 15:04:00,,0826.6,4.98,0.00,27.4,26.3,00.0,36.3,29.2,07.9,0000.0,0007.49,0003.07,0001.98
2022-05-13 15:05:00,,0826.7,5.01,0.00,27.4,26.3,00.0,36.3,29.2,07.7,0000.0,0007.32,0003.13,0001.99
2022-05-13 15:06:00,,0826.9,4.99,0.00,27.4,26.3,00.0,36.3,29.2,07.6,0000.0,0007.50,0003.16,0001.99
2022-05-13 15:07:00,,0826.7,5.00,0.00,27.4,26.3,00.0,36.3,29.2,07.5,0000.0,0007.79,0003.18,0001.99
2022-05-13 15:08:00,,0826.7,4.99,0.00,27.4,26.3,00.0,36.3,29.2,07.6,0000.0,0007.86,0003.16,0002.00
2022-05-13 15:09:00,,0826.6,5.01,0.00,27.4,26.3,00.0,36.3,29.2,07.8,0000.0,0007.78,0003.12,0001.99
2022-05-13 15:10:00,,0826.6,5.01,0.00,27.4,26.3,00.0,36.3,29.2,07.7,0000.0,0007.52,0003.10,0001.98
2022-05-13 15:11:00,,0826.6,4.99,0.00,27.4,26.3,00.0,36.3,29.2,07.7,0000.0,0006.85,0003.10,0002.00
2022-05-13 15:12:00,,0826.5,5.00,0.00,27.4,26.3,00.0,36.3,29.1,07.9,0000.0,0006.45,0003.11,0002.01
2022-05-13 15:13:00,,0826.6,5.01,0.00,27.4,26.3,00.0,36.3,29.2,08.0,0000.0,0006.41,0003.10,0002.03
2022-05-13 15:14:00,,0826.6,5.00,0.00,27.4,26.3,00.0,36.3,29.2,07.8,0000.0,0006.47,0003.11,0002.04
2022-05-13 15:15:00,,0826.6,5.00,0.00,27.4,26.3,00.0,36.3,29.2,08.0,0000.0,0006.39,0003.08,0002.04
2022-05-13 15:16:00,,0826.6,4.99,0.00,27.4,26.3,00.0,36.3,29.2,07.8,0000.0,0006.45,0003.07,0002.03
2022-05-13 15:17:00,,0826.6,5.00,0.00,27.4,26.3,00.0,36.4,29.2,07.8,0000.0,0006.82,0003.06,0002.03
2022-05-13 15:18:00,,0826.7,5.00,0.00,27.4,26.3,00.0,36.4,29.2,07.8,0000.0,0006.88,0003.10,0002.03
2022-05-13 15:19:00,,0826.8,4.99,0.00,27.4,26.3,00.0,36.4,29.3,07.9,0000.0,0006.82,0003.16,0002.03
2022-05-13 15:20:00,,0826.7,5.01,0.00,27.4,26.3,00.0,36.4,29.2,08.0,0000.0,0006.79,0003.17,0002.03
2022-05-13 15:21:00,,0826.6,4.99,0.00,27.4,26.3,00.0,36.4,29.2,08.2,0000.0,0007.00,0003.19,0002.04
2022-05-13 15:22:00,,0826.7,5.01,0.00,27.4,26.3,00.0,36.4,29.2,08.2,0000.0,0007.15,0003.21,0002.05
2022-05-13 15:23:00,,0826.7,4.99,0.00,27.4,26.3,00.0,36.4,29.2,07.9,0000.0,0007.19,0003.25,0002.06
2022-05-13 15:24:00,,0826.7,5.01,0.00,27.4,26.3,00.0,36.4,29.2,08.3,0000.0,0007.22,0003.26,0002.06
2022-05-13 15:25:00,,0826.7,4.98,0.00,27.4,26.3,00.0,36.4,29.2,07.9,0000.0,0007.20,0003.24,0002.07
2022-05-13 15:26:00,,0826.7,5.01,0.00,27.5,26.3,00.0,36.4,29.2,07.8,0000.0,0007.22,0003.23,0002.06
2022-05-13 15:27:00,,0826.6,4.99,0.00,27.5,26.3,00.0,36.4,29.2,07.8,0000.0,0007.16,0003.21,0002.06
2022-05-13 15:28:00,,0826.7,5.01,0.00,27.5,26.3,00.0,36.4,29.2,08.0,0000.0,0006.98,0003.20,0002.07
2022-05-13 15:29:00,,0826.8,4.99,0.00,27.5,26.3,00.0,36.4,29.2,07.8,0000.0,0007.30,0003.17,0002.08
2022-05-13 15:30:00,,0826.8,5.00,0.00,27.5,26.3,00.0,36.4,29.2,07.9,0000.0,0007.01,0003.09,0002.08
2022-05-13 15:31:00,,0826.8,5.01,0.00,27.5,26.3,00.0,36.4,29.2,08.1,0000.0,0007.07,0003.12,0002.11
2022-05-13 15:32:00,,0826.7,4.99,0.00,27.5,26.3,00.0,36.4,29.2,08.2,0000.0,0007.02,0003.15,0002.13
2022-05-13 15:33:00,,0826.7,5.01,0.00,27.5,26.3,00.0,36.4,29.2,08.3,0000.0,0007.45,0003.16,0002.15
2022-05-13 15:34:00,,0826.7,5.00,0.00,27.5,26.4,00.0,36.4,29.3,07.7,0000.0,0007.93,0003.19,0002.15
2022-05-13 15:35:00,,0826.8,5.00,0.00,27.5,26.3,00.0,36.4,29.3,07.9,0000.0,0007.91,0003.19,0002.15
2022-05-13 15:36:00,,0826.7,5.00,0.00,27.5,26.4,00.0,36.4,29.3,08.1,0000.0,0007.88,0003.19,0002.15
2022-05-13 15:37:00,,0826.7,5.01,0.00,27.5,26.4,00.0,36.4,29.3,07.9,0000.0,0007.82,0003.18,0002.14
2022-05-13 15:38:00,,0826.7,4.99,0.00,27.5,26.4,00.0,36.4,29.3,07.7,0000.0,0007.66,0003.15,0002.15
2022-05-13 15:39:00,,0826.7,5.01,0.00,27.5,26.4,00.0,36.4,29.3,07.8,0000.0,0007.29,0003.13,0002.14
2022-05-13 15:40:00,,0826.7,4.99,0.00,27.5,26.4,00.0,36.4,29.2,07.8,0000.0,0006.51,0003.13,0002.11
2022-05-13 15:41:00,,0826.6,5.00,0.00,27.5,26.4,00.0,36.4,29.2,08.0,0000.0,0006.70,0003.16,0002.10
2022-05-13 15:42:00,,0826.6,5.00,0.00,27.5,26.4,00.0,36.4,29.3,07.8,0000.0,0006.63,0003.13,0002.07
2022-05-13 15:43:00,,0826.6,5.00,0.00,27.5,26.4,00.0,36.4,29.3,07.9,0000.0,0007.03,0003.09,0002.04
2022-05-13 15:44:00,,0826.6,4.99,0.00,27.5,26.4,00.0,36.5,29.3,08.0,0000.0,0007.01,0003.01,0002.00
2022-05-13 15:45:00,,0826.7,5.01,0.00,27.5,26.4,00.0,36.5,29.3,07.9,0000.0,0005.95,0002.94,0001.99
2022-05-13 15:46:00,,0826.6,4.99,0.00,27.5,26.4,00.0,36.4,29.3,08.1,0000.0,0006.55,0002.85,0001.97
2022-05-13 15:47:00,,0826.7,5.00,0.00,27.5,26.4,00.0,36.5,29.2,07.8,0000.0,0007.73,0002.84,0001.95
2022-05-13 15:48:00,,0826.6,5.01,0.00,27.5,26.4,00.0,36.4,29.2,08.0,0000.0,0007.80,0002.88,0001.95
2022-05-13 15:49:00,,0826.6,5.00,0.00,27.5,26.4,00.0,36.5,29.3,07.9,0000.0,0007.84,0002.90,0001.94
2022-05-13 15:50:00,,0826.7,5.01,0.00,27.5,26.4,00.0,36.5,29.3,07.8,0000.0,0008.12,0002.96,0001.94
2022-05-13 15:51:00,,0826.7,5.00,0.00,27.5,26.3,00.0,36.5,29.3,07.8,0000.0,0008.26,0003.00,0001.94
2022-05-13 15:52:00,,0826.7,4.99,0.00,27.5,26.4,00.0,36.5,29.3,08.3,0000.0,0008.33,0003.01,0001.95
2022-05-13 15:53:00,,0826.6,5.00,0.00,27.5,26.4,00.0,36.5,29.3,07.9,0000.0,0008.41,0003.06,0001.96
2022-05-13 15:54:00,,0826.6,5.01,0.00,27.5,26.4,00.0,36.5,29.3,08.0,0000.0,0008.28,0003.13,0001.96
2022-05-13 15:55:00,,0826.6,5.00,0.00,27.5,26.4,00.0,36.5,29.3,07.9,0000.0,0008.06,0003.16,0001.97
2022-05-13 15:56:00,,0826.7,4.99,0.00,27.5,26.4,00.0,36.5,29.3,07.7,0000.0,0008.19,0003.18,0001.96
2022-05-13 15:57:00,,0826.6,5.00,0.00,27.6,26.4,00.0,36.5,29.3,07.8,0000.0,0007.70,0003.21,0001.96
2022-05-13 15:58:00,,0826.8,5.01,0.00,27.6,26.4,00.0,36.5,29.3,07.8,0000.0,0006.76,0003.20,0001.94
2022-05-13 15:59:00,,0826.8,5.00,0.00,27.6,26.4,00.0,36.5,29.3,08.1,0000.0,0006.65,0003.17,0001.92
